Weather Roundup
Issued by NWS

Home | Current Version | Previous Version | Graphics & Text | Print | Product List | Glossary Off
Versions: 1 2 3 4 5 6 7 8 9 10 11 12 13 14 15 16 17 18 19 20 21 22 23 24 25 26 27 28 29 30 31 32 33 34 35 36 37 38 39 40 41 42 43 44 45 46 47 48 49 50

098
NZUS93 KARX 090459
HRRWXR

CURRENT HOURLY OBSERVATIONS ACROSS
MUCH OF THE UPPER MISSISSIPPI VALLEY
NATIONAL WEATHER SERVICE LA CROSSE WI
1100 PM CST THU DEC 08 2016


...SOUTHEAST MINNESOTA...


CITY           SKY/WX    TMP DP  RH WIND       PRES   REMARKS
ROCHESTER      FLURRIES  16  12  84 W15       30.46R WCI   1
ROCHESTER/MAYO CLOUDY    18  14  85 W16       30.47R WCI   3
WINONA           N/A     23  16  74 NW7       30.48R WCI  15
AUSTIN         FLURRIES  16  10  79 NW12      30.49R WCI   3
ALBERT LEA     FLURRIES  18  14  86 NW9       30.51R WCI   6
DODGE CENTER   FLURRIES  14  10  85 W15       30.47R WCI  -1
PRESTON        FLURRIES  16  12  84 NW13      30.46S WCI   2
OWATONNA       FLURRIES  16  10  79 W15       30.50R WCI   1
FARIBAULT      LGT SNOW  16  12  86 W13       30.51R WCI   2
$$

...ELSEWHERE IN MINNESOTA...


CITY           SKY/WX    TMP DP  RH WIND       PRES   REMARKS
MINNEAPOLIS    CLOUDY    19  10  68 NW14      30.51R WCI   6
INTNL FALLS    CLOUDY    10   4  76 W7        30.44R WCI  -1
DULUTH         MOCLDY    14   8  77 NW9       30.39R WCI   2
RED WING       CLOUDY    21  12  68 W6        30.48S WCI  14
REDWOOD FALLS  CLOUDY    10   4  76 NW12      30.58R WCI  -5
MANKATO        FLURRIES  14   9  80 NW14      30.55R WCI  -1
WORTHINGTON    CLEAR      7   3  84 NW9       30.55S WCI  -7
FAIRMONT       FLURRIES  12   7  80 NW16      30.56S WCI  -5
$$

...SOUTHWEST WISCONSIN...


CITY           SKY/WX    TMP DP  RH WIND       PRES   REMARKS
LA CROSSE      CLOUDY    24  16  71 NW12      30.47R WCI  13
PRAIRIE DU CHI CLOUDY    22  14  71 W7        30.49R WCI  13
BOSCOBEL       FLURRIES  24  17  74 W9        30.47R WCI  14
LONE ROCK      NOT AVBL
PLATTEVILLE    CLOUDY    21  18  87 W13       30.44R WCI   8
FORT MC COY    FLURRIES  23  18  82 W8        30.44R WCI  13
MAUSTON-NEW LI CLOUDY    24  18  80 W8        30.40R WCI  14
VIROQUA        CLOUDY    20  16  83 NW9       30.41R WCI  10
WIS DELLS      CLOUDY    23  17  80 NW8       30.39R WCI  13
$$

...ELSEWHERE IN WISCONSIN...


CITY           SKY/WX    TMP DP  RH WIND       PRES   REMARKS
MILWAUKEE      MOCLDY    25  15  66 W13       30.36R WCI  14
MADISON        MOCLDY    21  16  81 W7        30.39R WCI  12
GREEN BAY      CLEAR     23  18  81 W8        30.34R WCI  14
EAU CLAIRE     NOT AVBL
BLACK RVR FLS  FLURRIES  23  17  76 W5        30.43R WCI  17
MEDFORD        CLOUDY    18  12  77 NW6       30.34R WCI  10
WAUSAU         CLEAR     19  12  74 W12       30.33R WCI   7
WIS RAPIDS     PTCLDY    22  15  75 NW9       30.39R WCI  12
MARSHFIELD     CLEAR     19  11  70 W10       30.35R WCI   7
RICE LAKE      CLEAR     19  12  74 W9        30.44R WCI   8
$$

...NORTHEAST IOWA...


CITY           SKY/WX    TMP DP  RH WIND       PRES   REMARKS
WATERLOO       CLOUDY    17   9  70 NW12      30.53R WCI   4
DUBUQUE        CLOUDY    19  13  77 W14       30.46R WCI   6
DECORAH        FLURRIES  18  14  86 NW7G16    30.46R WCI   8
MASON CITY     CLOUDY    14   8  77 NW12      30.54R WCI   0
CHARLES CITY   FLURRIES  16  10  79 W17       30.51S WCI   0
OELWEIN        CLOUDY    18  12  79 NW16      30.50R WCI   3
$$

...ELSEWHERE IN IOWA...


CITY           SKY/WX    TMP DP  RH WIND       PRES   REMARKS
DES MOINES     PTCLDY    17   9  70 NW13      30.59R WCI   4
IOWA CITY      FLURRIES  22  13  68 NW12      30.55R WCI  10
FORT DODGE     CLOUDY    12   5  73 NW9       30.57S WCI   0
MARSHALLTOWN   FLURRIES  18  13  80 NW18      30.54R WCI   2
CEDAR RAPIDS   CLOUDY    19  14  81 NW16      30.51R WCI   4
$$

...NORTHERN ILLINOIS...


CITY           SKY/WX    TMP DP  RH WIND       PRES   REMARKS
CHICAGO-OHARE  PTCLDY    22  16  78 W10       30.40R WCI  11
CHICAGO-MIDWAY PTCLDY    23  14  68 W10       30.42R WCI  12
MOLINE         CLOUDY    23  11  60 W13       30.51R WCI  11
ROCKFORD       CLOUDY    22  16  78 W12       30.45R WCI  10
PEORIA         CLOUDY    22  14  71 NW12      30.52S WCI  10
$$

NOTE: "FAIR" INDICATES FEW OR NO CLOUDS BELOW 12,000 FEET WITH NO
SIGNIFICANT WEATHER AND/OR OBSTRUCTIONS TO VISIBILITY. WIND
SPEEDS ARE IN MILES-PER-HOUR.




USA.gov is the U.S. government's official web portal to all federal, state and local government web resources and services.